Home   Weather   Montfoort   Past weeks

Flag for Netherlands Past Weather in Montfoort, Netherlands — Yesterday and Last 2 Weeks

Now
30 °F

Sunny.


Feels Like: 30 °F
Forecast: 24 / 36 °F
Wind: 2 mph from East

Location: De Bilt

Current Time: Dec 4, 2016 at 11:17:05 am

Latest Report: Dec 4, 2016 at 10:00 am


Visibility: 6 mi

Pressure: 30.38 "Hg

Humidity: 91%

Dew Point: 27 °F

Location of MontfoortLocation

Past Weather in Montfoort — Graph

°F

Montfoort Temperature Yesterday

Maximum temperature yesterday: 46 °F (at 2:00 pm)
Minimum temperature yesterday: 26 °F (at 11:00 pm)
Average temperature yesterday: 32 °F

High & Low Weather Summary for the Past Weeks

 TemperatureHumidityPressure
High57 °F (Nov 21, 2:00 pm)100% (Dec 2, 10:00 pm)30.60 "Hg (Dec 2, 10:00 pm)
Low20 °F (Nov 29, 7:00 am)45% (Nov 25, 1:00 pm)29.06 "Hg (Nov 20, 12:00 pm)
Average40 °F85%30.10 "Hg
* Reported Nov 19 10:00 am — Dec 4 10:00 am, Montfoort, Weather by CustomWeather, © 2016

Note: Actual official high and low records may vary slightly from our data, if they occured in-between our weather recording intervals... More about our weather records

Advertising

Montfoort Weather History for the Previous 24 Hours

Scroll right to see more
 ConditionsComfort  
Time TempWeatherWind HumidityBarometerVisibility
10:00 am
Sun, Dec 4
30 °FSunny.2 mph91%30.38 "Hg6 mi
9:00 am27 °FFog.2 mph96%30.37 "Hg5 mi
8:00 am23 °FClear.1 mph94%30.36 "Hg3 mi
7:00 am24 °FClear.2 mph96%30.35 "Hg3 mi
6:00 am25 °FClear.2 mph95%30.34 "Hg4 mi
5:00 am25 °FClear.2 mph96%30.34 "Hg3 mi
4:00 am23 °FClear.2 mph96%30.35 "Hg3 mi
2:00 am24 °FFog.1 mph96%30.36 "Hg3 mi
1:00 am25 °FFog.1 mph97%30.35 "Hg4 mi
12:00 am25 °FFog.1 mph96%30.35 "Hg4 mi
11:00 pm
Sat, Dec 3
26 °FClear.No wind97%30.34 "Hg4 mi
10:00 pm26 °FClear.1 mph98%30.34 "Hg4 mi
9:00 pm27 °FClear.1 mph99%30.34 "Hg4 mi
8:00 pm29 °FClear.1 mph99%30.34 "Hg5 mi
7:00 pm30 °FFog.1 mph100%30.33 "Hg1 mi
6:00 pm32 °FFog.1 mph97%30.33 "Hg4 mi
5:00 pm36 °FPassing clouds.No wind95%30.32 "Hg9 mi
4:00 pm42 °FSunny.1 mph79%30.31 "Hg18 mi
3:00 pm45 °FPassing clouds.1 mph68%30.31 "Hg19 mi
2:00 pm46 °FOvercast.1 mph64%30.32 "Hg16 mi
1:00 pm43 °FOvercast.1 mph84%30.32 "Hg11 mi
12:00 pm41 °FOvercast.1 mph89%30.33 "Hg9 mi
11:00 am35 °FFog.No wind99%30.34 "Hg3 mi
Weather by CustomWeather, © 2016

See weather overviewHow to use our weather pages